[[{"header":{"parameterUnit":"m.s-1","parameterCategory":1,"la1":30.2991,"la2":30.254,"lo1":-89.0895,"lo2":-89.0444,"dy":0.0017,"dx":0.0017,"nx":28,"ny":28,"refTime":"2023-08-25T21:00:00:Z","depth":0,"parameterNumber":2,"parameterNumberName":"U-component_of_WINDS"},"data":[0,0,0,0,0,0,0,0,0,0,0,0,0,0,0,0,0,0,0,0,0,0,0,0,0,0,0,0,0,0,0,0,0,0,0,0,0,0,0,0,0,0,0,0,0,0,0,0,0,0,0,0,0,0,0,0,0,0,-2.1222,-2.1221,0,-2.1079,-2.1077,-2.1076,-2.098,-2.0979,-2.0979,-2.0978,-2.0829,-2.0826,-2.0823,0,0,0,0,0,0,0,0,0,0,0,0,0,-2.1413,-2.141,-2.1223,-2.1221,-2.1219,-2.1079,-2.1077,-2.1075,-2.098,-2.0979,-2.0978,-2.0978,-2.0831,-2.0827,-2.0823,0,0,0,0,0,0,0,0,0,0,0,0,0,-2.1306,-2.1409,-2.1223,-2.1155,-2.1147,-2.108,-2.1077,-2.1075,-2.098,-2.0979,-2.0978,-2.0977,-2.0832,-2.0827,-2.0822,-2.0811,0,0,-2.0807,-2.0805,0,0,0,0,0,0,0,0,-2.1312,-2.1299,-2.1166,-2.1159,-2.1151,-2.1046,-2.109,-2.0986,-2.098,-2.1044,-2.0978,-2.0977,-2.0902,-2.0892,-2.0867,-2.0804,-2.0798,-2.0806,-2.0803,-2.0801,-2.08,0,0,0,0,0,0,0,-2.132,-2.1305,-2.1166,-2.1165,-2.1155,-2.1131,-2.1115,-2.107,-2.098,-2.1038,-2.1031,-2.1015,-2.0898,-2.0872,-2.0862,-2.0795,-2.0806,-2.0802,-2.0799,-2.0797,-2.0717,-2.0718,0,0,0,0,0,0,-2.1338,-2.1312,-2.117,-2.1161,-2.1231,-2.1128,-2.111,-2.1081,-2.098,-2.0964,-2.1016,-2.1011,-2.0881,-2.0868,-2.0857,-2.0837,-2.0801,-2.0796,-2.0794,-2.0716,-2.0717,-2.0718,0,0,0,0,0,0,-2.1343,-2.1327,-2.1176,-2.1235,-2.1214,-2.1126,-2.1094,-2.1079,-2.1052,-2.0964,-2.0947,-2.1006,-2.088,-2.0864,-2.0823,-2.0831,-2.0794,-2.079,-2.0715,-2.0717,-2.0718,-2.0799,0,0,0,0,0,0,-2.1349,-2.1329,-2.1324,-2.1235,-2.1211,-2.1145,-2.1094,-2.1076,-2.1044,-2.1036,-2.095,-2.0935,-2.0878,-2.0831,-2.0818,-2.0823,-2.0786,-2.0714,-2.0716,-2.0717,-2.0795,-2.0803,-2.0809,0,0,0,0,0,-2.1356,-2.1351,-2.1324,-2.1307,-2.1203,-2.1146,-2.1132,-2.1067,-2.1045,-2.1039,-2.0983,-2.0937,-2.0833,-2.0828,-2.0813,-2.0816,-2.0713,-2.0715,-2.0717,-2.0792,-2.0801,-2.0809,0,0,0,0,0,0,-2.1442,-2.1338,-2.1307,-2.1274,-2.122,-2.113,-2.112,-2.1079,-2.1029,-2.1023,-2.0944,-2.0926,-2.0893,-2.085,-2.0847,-2.0801,-2.0768,-2.0767,-2.083,-2.0838,-2.0845,-2.0855,-2.0782,0,0,0,0,0,-2.1457,-2.142,-2.1332,-2.1311,-2.1286,-2.1208,-2.1181,-2.1136,-2.1076,-2.1052,-2.0992,-2.0936,-2.089,-2.0862,-2.0815,-2.0789,-2.0769,-2.0784,-2.0791,-2.0798,-2.0797,-2.0781,-2.0787,-2.0725,-2.0725,-2.0725,0,0,-2.1488,-2.1427,-2.1408,-2.1327,-2.128,-2.1243,-2.1189,-2.1152,-2.1124,-2.1046,-2.1004,-2.0959,-2.0891,-2.0858,-2.0841,-2.0822,-2.081,-2.08,-2.0806,-2.0802,-2.0784,-2.079,-2.0795,-2.0726,-2.0726,-2.0726,0,0,-2.1526,-2.1476,-2.1454,-2.1408,-2.1337,-2.1286,-2.1281,-2.1198,-2.1165,-2.1122,-2.1063,-2.1029,-2.0952,-2.0906,-2.0872,-2.0895,-2.0852,-2.0882,-2.0919,-2.0904,-2.0909,-2.0913,-2.0921,-2.0925,-2.0882,-2.0882,-2.0883,0,-2.1573,-2.1515,-2.1447,-2.1414,-2.138,-2.131,-2.1287,-2.1245,-2.1163,-2.1141,-2.1122,-2.1024,-2.0973,-2.0929,-2.0935,-2.091,-2.0902,-2.0891,-2.0914,-2.0917,-2.092,-2.0927,-2.093,-2.0887,-2.0886,-2.0886,-2.0885,0,-2.1577,-2.1538,-2.1529,-2.1452,-2.1417,-2.139,-2.1318,-2.1291,-2.1249,-2.12,-2.1158,-2.1095,-2.1034,-2.102,-2.0979,-2.0971,-2.0961,-2.0929,-2.0894,-2.0931,-2.0937,-2.0939,-2.0892,-2.0891,-2.089,-2.0889,0,0,-2.1663,-2.155,-2.1548,-2.1513,-2.1431,-2.1399,-2.1369,-2.1311,-2.1289,-2.1236,-2.1208,-2.1146,-2.1116,-2.1078,-2.1031,-2.1018,-2.1041,-2.0987,-2.0984,-2.1,-2.1029,-2.1053,-2.1058,-2.1012,-2.1013,-2.1013,-2.1034,0,-2.1688,-2.1629,-2.1568,-2.1532,-2.1495,-2.1429,-2.1402,-2.1349,-2.1303,-2.1266,-2.1214,-2.1172,-2.1135,-2.1112,-2.1097,-2.1042,-2.1046,-2.1039,-2.0986,-2.0985,-2.1005,-2.106,-2.1085,-2.1109,-2.1036,-2.1036,-2.1037,0,-2.1708,-2.1659,-2.1619,-2.1542,-2.1524,-2.1502,-2.1444,-2.1409,-2.1348,-2.1315,-2.1275,-2.1225,-2.119,-2.1161,-2.1111,-2.1108,-2.1083,-2.1053,-2.1052,-2.1044,-2.1013,-2.1053,-2.1114,-2.1118,-2.1039,-2.1039,-2.1039,0,-2.1775,-2.1699,-2.1665,-2.1637,-2.1546,-2.1532,-2.1493,-2.1431,-2.1401,-2.135,-2.133,-2.1276,-2.1246,-2.1206,-2.1144,-2.1128,-2.1101,-2.1066,-2.1073,-2.1075,-2.107,-2.1071,-2.1128,-2.1055,-2.1055,-2.1055,-2.1055,0,-2.1809,-2.1787,-2.1694,-2.1673,-2.1647,-2.1578,-2.1554,-2.1509,-2.1455,-2.1425,-2.1364,-2.1337,-2.1256,-2.1219,-2.117,-2.1137,-2.1125,-2.1097,-2.1084,-2.1102,-2.1106,-2.1084,-2.1081,-2.1055,-2.1055,-2.1055,-2.1055,0,-2.1878,-2.1815,-2.1774,-2.1692,-2.1671,-2.1656,-2.1585,-2.1563,-2.1514,-2.1477,-2.1464,-2.1387,-2.1341,-2.1275,-2.1209,-2.1176,-2.115,-2.113,-2.1171,-2.1163,-2.1174,-2.1174,-2.1218,-2.1221,-2.1148,-2.1148,-2.1149,0,-2.1904,-2.1886,-2.1802,-2.1778,-2.1742,-2.1703,-2.1672,-2.1604,-2.1574,-2.1504,-2.149,-2.144,-2.1395,-2.1325,-2.1263,-2.1212,-2.119,-2.1209,-2.1182,-2.1201,-2.119,-2.1192,-2.119,-2.1216,-2.1217,-2.1218,-2.1218,0,-2.1956,-2.1926,-2.1884,-2.1831,-2.1796,-2.1751,-2.1703,-2.1687,-2.1608,-2.1578,-2.153,-2.1496,-2.1429,-2.138,-2.1321,-2.1281,-2.1237,-2.1228,-2.1227,-2.1244,-2.1269,-2.1256,-2.1189,-2.1227,-2.1226,-2.1225,-2.1225,-2.1224,-2.2003,-2.1985,-2.1924,-2.1879,-2.1836,-2.1793,-2.1769,-2.1718,-2.1677,-2.1618,-2.158,-2.1535,-2.1475,-2.1392,-2.1355,-2.1318,-2.13,-2.1298,-2.1298,-2.1298,-2.1305,-2.1276,-2.1307,-2.1307,-2.1307,-2.1306,-2.1306,0,-2.2052,-2.201,-2.197,-2.1906,-2.1871,-2.1834,-2.1779,-2.1752,-2.1714,-2.1662,-2.1621,-2.1567,-2.1519,-2.1455,-2.1403,-2.1386,-2.1365,-2.1375,-2.1375,-2.1367,-2.1324,-2.133,-2.1393,-2.1393,-2.1393,-2.1393,-2.1393,-2.1393,-2.2073,-2.204,-2.2003,-2.1948,-2.1906,-2.1862,-2.1834,-2.1795,-2.1753,-2.1697,-2.1657,-2.1616,-2.1559,-2.1503,-2.1458,-2.144,-2.1424,-2.144,-2.1416,-2.1377,-2.137,-2.1362,-2.1367,-2.1437,-2.1437,-2.1462,-2.1462,-2.1462]},{"header":{"parameterUnit":"m.s-1","parameterCategory":1,"la1":30.2991,"la2":30.254,"lo1":-89.0895,"lo2":-89.0444,"dy":0.0017,"dx":0.0017,"nx":28,"ny":28,"refTime":"2023-08-25T21:00:00:Z","depth":0,"parameterNumber":3,"parameterNumberName":"V-component_of_WINDS"},"data":[0,0,0,0,0,0,0,0,0,0,0,0,0,0,0,0,0,0,0,0,0,0,0,0,0,0,0,0,0,0,0,0,0,0,0,0,0,0,0,0,0,0,0,0,0,0,0,0,0,0,0,0,0,0,0,0,0,0,1.5764,1.5764,0,1.5776,1.5776,1.5776,1.5823,1.5824,1.5825,1.5826,1.5835,1.5834,1.5833,0,0,0,0,0,0,0,0,0,0,0,0,0,1.5779,1.5778,1.5764,1.5764,1.5764,1.5776,1.5776,1.5776,1.5823,1.5824,1.5825,1.5827,1.5835,1.5834,1.5833,0,0,0,0,0,0,0,0,0,0,0,0,0,1.578,1.5778,1.5764,1.5789,1.5791,1.5776,1.5776,1.5776,1.5822,1.5824,1.5826,1.5827,1.5836,1.5834,1.5833,1.5794,0,0,1.583,1.5829,0,0,0,0,0,0,0,0,1.578,1.5779,1.5785,1.5787,1.579,1.58,1.5785,1.5782,1.5822,1.5811,1.5826,1.5828,1.5822,1.5822,1.582,1.5794,1.5794,1.583,1.5829,1.5828,1.5828,0,0,0,0,0,0,0,1.5779,1.5779,1.5769,1.5785,1.5788,1.5799,1.5801,1.5784,1.5807,1.5812,1.5815,1.5816,1.5823,1.5821,1.5821,1.5795,1.583,1.5829,1.5828,1.5827,1.5735,1.5733,0,0,0,0,0,0,1.5776,1.5778,1.5768,1.5769,1.5789,1.5797,1.5799,1.5795,1.5807,1.5811,1.5815,1.5818,1.5823,1.5822,1.5821,1.5774,1.5828,1.5827,1.5827,1.5736,1.5734,1.5732,0,0,0,0,0,0,1.5776,1.5775,1.5768,1.5775,1.5775,1.5795,1.579,1.5794,1.5792,1.5809,1.5813,1.5809,1.5824,1.5823,1.58,1.5775,1.5827,1.5826,1.5738,1.5736,1.5733,1.568,0,0,0,0,0,0,1.5777,1.5775,1.576,1.5774,1.5774,1.5747,1.5788,1.5793,1.5791,1.5795,1.5805,1.5808,1.5825,1.5801,1.5799,1.5774,1.5825,1.5741,1.5737,1.5734,1.5684,1.5676,1.5669,0,0,0,0,0,1.5777,1.5745,1.5759,1.5758,1.5757,1.5745,1.5745,1.5767,1.5788,1.5774,1.5785,1.5808,1.5779,1.5799,1.5796,1.5771,1.5742,1.5738,1.5734,1.5687,1.5677,1.5669,0,0,0,0,0,0,1.5726,1.5747,1.5763,1.5735,1.5738,1.5753,1.5735,1.5756,1.5752,1.5756,1.5782,1.5784,1.5756,1.5762,1.5784,1.5733,1.5764,1.576,1.573,1.572,1.5713,1.5711,1.5824,0,0,0,0,0,1.5712,1.5702,1.572,1.5693,1.5694,1.5714,1.571,1.5726,1.573,1.5732,1.5741,1.5743,1.5735,1.5728,1.5721,1.5686,1.5688,1.5667,1.566,1.5654,1.5648,1.5628,1.5619,1.5719,1.5719,1.5719,0,0,1.5682,1.5692,1.5684,1.5683,1.5688,1.5675,1.5715,1.5701,1.5691,1.5729,1.5708,1.5715,1.5719,1.5689,1.5676,1.5693,1.5621,1.5648,1.5643,1.5641,1.5623,1.5613,1.5605,1.5717,1.5717,1.5717,0,0,1.562,1.5628,1.5605,1.5609,1.5616,1.563,1.5624,1.5636,1.5643,1.5622,1.565,1.5639,1.5624,1.5625,1.5624,1.5563,1.5583,1.556,1.552,1.55,1.5492,1.5485,1.5461,1.5452,1.5556,1.5556,1.5555,0,1.5581,1.5565,1.5591,1.5574,1.5572,1.5608,1.5584,1.5586,1.559,1.5587,1.5606,1.5588,1.5593,1.5563,1.5548,1.5547,1.554,1.5558,1.5491,1.5484,1.5478,1.5455,1.5447,1.5553,1.5553,1.5553,1.5553,0,1.5516,1.5504,1.5485,1.5488,1.5484,1.5464,1.5486,1.5479,1.5496,1.5507,1.5485,1.5493,1.5488,1.5483,1.5499,1.5454,1.5464,1.5487,1.5519,1.5465,1.5444,1.5436,1.5548,1.5549,1.555,1.5551,0,0,1.542,1.5439,1.5431,1.5432,1.5443,1.5433,1.5415,1.5411,1.5403,1.5405,1.5389,1.5376,1.5396,1.5395,1.5412,1.5395,1.5343,1.5419,1.542,1.5402,1.5292,1.5273,1.5263,1.5358,1.5357,1.5355,1.5291,0,1.5359,1.5329,1.5352,1.5317,1.5305,1.5339,1.5323,1.5327,1.5337,1.5328,1.534,1.5329,1.5358,1.5357,1.5342,1.5353,1.5321,1.5358,1.5341,1.534,1.5336,1.5253,1.5233,1.5172,1.5284,1.5282,1.5281,0,1.5284,1.5282,1.5246,1.5259,1.5255,1.524,1.5237,1.5229,1.5234,1.5242,1.5241,1.5262,1.5243,1.5277,1.525,1.5275,1.527,1.5274,1.5272,1.5269,1.5305,1.5244,1.5153,1.5143,1.5269,1.527,1.5271,0,1.5214,1.5204,1.5181,1.5182,1.5196,1.5184,1.5189,1.5196,1.5192,1.519,1.5187,1.5182,1.5179,1.5174,1.5193,1.5216,1.5163,1.5199,1.5168,1.5167,1.5153,1.5153,1.5056,1.5154,1.5154,1.5154,1.5155,0,1.5142,1.5118,1.515,1.5135,1.5109,1.5136,1.5109,1.5117,1.5123,1.511,1.514,1.5126,1.5153,1.5142,1.5157,1.5132,1.5131,1.5136,1.5139,1.5131,1.513,1.5126,1.513,1.5152,1.5153,1.5153,1.5153,0,1.5059,1.508,1.5056,1.5072,1.5076,1.5055,1.5068,1.5055,1.5068,1.5051,1.5048,1.5068,1.5057,1.5076,1.5067,1.5077,1.5041,1.5052,1.5039,1.5041,1.5008,1.501,1.4903,1.4889,1.4998,1.4997,1.4996,0,1.501,1.4993,1.5007,1.5001,1.5004,1.4994,1.499,1.5016,1.501,1.5015,1.5,1.4992,1.4986,1.4966,1.4979,1.4972,1.4981,1.4945,1.498,1.4972,1.4978,1.4977,1.4975,1.4936,1.4935,1.4934,1.4933,0,1.4921,1.4932,1.4926,1.4923,1.4917,1.4916,1.4917,1.491,1.4937,1.4929,1.4918,1.4914,1.4905,1.4895,1.4892,1.4896,1.4917,1.4922,1.4914,1.4904,1.4896,1.4897,1.5016,1.4924,1.4925,1.4925,1.4926,1.4926,1.4852,1.4837,1.4845,1.4836,1.484,1.484,1.4828,1.484,1.4832,1.4827,1.4843,1.4828,1.4833,1.483,1.4832,1.482,1.4836,1.4825,1.4821,1.4817,1.4811,1.4901,1.4819,1.482,1.482,1.482,1.482,0,1.4761,1.4768,1.4761,1.4761,1.4754,1.4778,1.478,1.4772,1.4759,1.4762,1.4756,1.4743,1.4734,1.4747,1.474,1.4727,1.4737,1.4724,1.4724,1.4724,1.4798,1.4805,1.4716,1.4716,1.4716,1.4716,1.4716,1.4716,1.4713,1.4689,1.4701,1.4679,1.4686,1.4672,1.4671,1.4671,1.4673,1.4658,1.4651,1.466,1.4666,1.466,1.4652,1.4656,1.465,1.4633,1.464,1.4709,1.4719,1.4728,1.4735,1.4633,1.4633,1.4567,1.4566,1.4565]}]]